Location: Maiden
(35.5760°N, 81.2120°W)
Time: 01:52:27
(UTC-04:00)

A-11 Canister half - Pass Details

Date: 10 August 2020
Orbit: 1527 x 1682 km, 47.3° (Epoch: 25 September)

Event Time Altitude Azimuth Distance (km) Brightness Sun altitude
Rises 12:38:25 0° 231° (SW) 4,879 11.7 66.6°
Reaches altitude 10° 12:41:31 10° 231° (SW) 3,907 11.3 67.0°
Maximum altitude 12:51:38 87° 143° (SE) 1,685 11.0 67.9°
Drops below altitude 10° 13:01:50 10° 56° (NE) 3,939 11.2 68.7°
Sets 13:04:59 0° 56° (ENE) 4,920 11.6 68.9°
